Lexington Weather

Lexington, Massachusetts, USA

25°F
1/21/2021 9:53am 
  • Lexington Conditions: Clear
  • Temperature: 24.6°F / -4.1°CWarmer 2.3°F than last hour.
  • Dew Point: 13.8°FIncreased 2.1°Fsince last hour.
  • Relative Humidity: 63
  • Wind: Calm, 10-min avg: Calm, gust: 3 mph
  • Barometer: 29.78 in Steady
  • Visibility: 10 miles
  • Snow Today: Trace
  •   

Regional Weather Roundup
for Boston / Norton, MA

        
000
ASUS41 KBOX 181604
RWRBOX

REGIONAL WEATHER ROUNDUP
NATIONAL WEATHER SERVICE BOSTON/NORTON MA
1100 AM EST MON JAN 18 2021

NOTE:  "FAIR" INDICATES FEW OR NO CLOUDS BELOW 12,000 FEET WITH NO 
SIGNIFICANT WEATHER AND/OR OBSTRUCTIONS TO VISIBILITY.

MAZALL-181700-
EASTERN MASSACHUSETTS
  
CITY           SKY/WX    TMP DP  RH WIND       PRES   REMARKS
BOSTON         MOSUNNY   42  26  53 W15G21    29.62F                  
BEVERLY        SUNNY     44  27  51 SW17      29.60F                  
LAWRENCE       PTSUNNY   43  28  55 W13       29.61F                  
BEDFORD        MOSUNNY   44  26  49 W12       29.60F                  
BLUE HILL        N/A     41  26  55 W12G18    29.60F                  
NORWOOD        SUNNY     45  26  47 W12       29.63F                  
MARSHFIELD     SUNNY     45  28  53 SW9G17    29.63F                  
PLYMOUTH       SUNNY     43  28  55 SW14      29.63F                  
TAUNTON        SUNNY     45  27  49 W12G18    29.64F                  
NEW BEDFORD    SUNNY     44  28  53 W13       29.65F                  
$$

MAZALL-181700-
CAPE COD AND THE ISLANDS
  
CITY           SKY/WX    TMP DP  RH WIND       PRES   REMARKS
FALMOUTH       SUNNY     43  28  56 W20G29    29.65F                  
HYANNIS        SUNNY     45  28  51 W16       29.63F                  
CHATHAM        SUNNY     44  30  57 SW10G24   29.66F                  
NANTUCKET      SUNNY     45  32  60 W20       29.67F                  
MARTHAS VNYRD  MOSUNNY   44  31  60 W17G26    29.67F                  
$$
 
MAZALL-181700-
CENTRAL AND WESTERN MASSACHUSETTS
  
CITY           SKY/WX    TMP DP  RH WIND       PRES   REMARKS
WORCESTER      PTSUNNY   38  25  59 W17G25    29.60F WCI  28          
FITCHBURG      MOSUNNY   41  28  60 W14G22    29.61F                  
ORANGE         PTSUNNY   39  26  59 W16G25    29.62S WCI  30          
SPRINGFIELD    PTSUNNY   42  25  52 W13       29.63F                  
WESTFIELD      PTSUNNY   42  27  55 W16       29.64F                  
NORTH ADAMS    CLOUDY    36  29  75 W8        29.62F WCI  30          
PITTSFIELD     PTSUNNY   35  26  69 W13       29.60S WCI  26          
$$
 
RIZALL-181700-
RHODE ISLAND
  
CITY           SKY/WX    TMP DP  RH WIND       PRES   REMARKS
PROVIDENCE     MOSUNNY   44  27  51 W14       29.66F                  
NEWPORT        SUNNY     43  28  55 W7        29.66F                  
BLOCK ISLAND   SUNNY     42  29  59 W21       29.70F                  
SMITHFIELD     SUNNY     42  27  55 W12G17    29.64F                  
WESTERLY       MOSUNNY   40  29  64 SW15G22   29.69F WCI  32          
$$
 
CTZALL-181700-
CONNECTICUT
  
CITY           SKY/WX    TMP DP  RH WIND       PRES   REMARKS
BRADLEY INTL   PTSUNNY   44  26  49 W7        29.66S                  
HARTFORD       MOSUNNY   43  26  51 W10G20    29.67F                  
BRIDGEPORT     SUNNY     43  30  60 SW16      29.71F                  
DANBURY        CLOUDY    39  26  59 W12G23    29.70F WCI  32          
GROTON         MOSUNNY   43  31  62 SW17G25   29.68F                  
NEW HAVEN      SUNNY     44  32  62 SW9G17    29.70F                  
CHESTER        FAIR      43  27  52 SW9G18    29.67F                  
MERIDEN        PTSUNNY   43  26  51 VRB7      29.69F                  
WILLIMANTIC    SUNNY     42  26  53 W9G17     29.67F                  
OXFORD         PTSUNNY   39  28  64 W10G17    29.68S                  
$$

MEZ002-015-021-024-NHZ003-005-008-011-012-014-VTZ005-008-181700-
NORTHERN NEW ENGLAND
  
CITY           SKY/WX    TMP DP  RH WIND       PRES   REMARKS
PORTLAND ME    CLOUDY    39  26  59 W15G23    29.55S WCI  31          
BANGOR ME      FLURRIES  33  25  72 W12G22    29.51F WCI  24          
CONCORD NH     MOSUNNY   39  26  59 W14       29.58S WCI  31          
MANCHESTER NH  PTSUNNY   41  25  53 W10G25    29.58S                  
NASHUA NH      PTSUNNY   43  28  55 W9        29.60F                  
PORTSMOUTH NH  PTSUNNY   43  22  43 W14G20    29.56F                  
JAFFREY NH     MOSUNNY   37  25  61 W8G22     29.58S WCI  31          
KEENE NH       CLOUDY    39  26  59 W12G17    29.60F WCI  32          
BURLINGTON VT  CLOUDY    27  18  69 N12       29.63S WCI  17          
MT. WASHINGTON SNOWSHWR   9   9 100 W63         N/A  VSB 0   WCI -21  
$$

NYZ052-076-181700-
EASTERN NEW YORK
  
CITY           SKY/WX    TMP DP  RH WIND       PRES   REMARKS
ALBANY         CLOUDY    32  27  81 W12       29.68R WCI  23          
NEW YORK CITY  MOSUNNY   44  26  49 W13       29.74F                  
$$
 
ANZALL-181700-
MARINE OBSERVATIONS
  
STATION/POSITION TIME  TEMP    WIND        PRES    VSBY  WAVE
                       AIR SEA DIR/SP/G                  HT/PER
                 (UTC) (F)     (DEG/KT/KT) (MB)    (MI)  (FT/S)
BOSTON BUOY      1540   41 43  240/ 16/ 19 1003.9F
BUZZARDS BAY     1500          260/ 24/ 26 1006.2R
NANTUCKET SOUND  1540      40  250/ 19/ 23   N/A
MASS BAY-STELLWA 1504   40     240/ 17/ 21 1001.9R  1 7/8  3/ 4
ISLE OF SHOALS   1500   40     250/ 18/ 22 1001.6R
S OF BLOCK IS    1526      49                N/A           7/ 8
$$

......................KEY.........................
  SKY/WX - SKY CONDITION/PRESENT WEATHER
  TMP    - TEMPERATURE IN FAHRENHEIT
  DWPT   - DEWPOINT IN FAHRENHEIT
  RH     - RELATIVE HUMIDITY IN PERCENT
  WIND   - DIRECTION AND SPEED IN MPH
  PRES   - MEAN SEA LEVEL PRESSURE IN INCHES OF HG
  WCI    - WIND CHILL INDEX
  VSB    - VISIBILITY IN MILES
  HX     - HEAT INDEX
  TC     - TEMPERATURE IN CELSIUS
  VRB    - VARIABLE WIND DIRECTION
  N/A    - NOT AVAILABLE
  
      

Other recent Regional Weather Roundups

Thu Jan 21, 9:04am

Thu Jan 21, 7:04am

Thu Jan 21, 6:04am

Thu Jan 21, 5:04am

Thu Jan 21, 4:04am

Thu Jan 21, 3:04am

Thu Jan 21, 2:04am

Thu Jan 21, 1:04am

Thu Jan 21, 12:04am

Wed Jan 20, 11:04pm

Wed Jan 20, 10:05pm

Wed Jan 20, 9:04pm

Wed Jan 20, 8:04pm

Wed Jan 20, 7:04pm

Wed Jan 20, 6:05pm

Wed Jan 20, 5:05pm

Wed Jan 20, 1:04pm

Wed Jan 20, 12:04pm

Wed Jan 20, 11:04am

Wed Jan 20, 10:04am

Wed Jan 20, 9:05am

Wed Jan 20, 8:04am

Wed Jan 20, 7:04am

Wed Jan 20, 6:04am

Wed Jan 20, 5:04am

Wed Jan 20, 4:04am

Wed Jan 20, 3:05am

Wed Jan 20, 2:04am

Wed Jan 20, 1:04am

Wed Jan 20, 12:04am

Tue Jan 19, 11:04pm

Tue Jan 19, 10:04pm

Tue Jan 19, 9:04pm

Tue Jan 19, 8:04pm

Tue Jan 19, 7:04pm

Tue Jan 19, 6:05pm

Tue Jan 19, 5:04pm

Tue Jan 19, 4:05pm

Tue Jan 19, 3:04pm

Tue Jan 19, 2:04pm

Tue Jan 19, 1:04pm

Tue Jan 19, 12:05pm

Tue Jan 19, 11:04am

Tue Jan 19, 10:05am

Tue Jan 19, 9:04am

Tue Jan 19, 8:04am

Tue Jan 19, 7:04am

Tue Jan 19, 6:04am

Tue Jan 19, 5:04am

Tue Jan 19, 4:04am

Tue Jan 19, 3:04am

Tue Jan 19, 2:04am

Tue Jan 19, 1:04am

Tue Jan 19, 12:04am

Mon Jan 18, 11:04pm

Mon Jan 18, 10:04pm

Mon Jan 18, 9:04pm

Mon Jan 18, 8:05pm

Mon Jan 18, 7:04pm

Mon Jan 18, 6:05pm

Mon Jan 18, 5:04pm

Mon Jan 18, 4:04pm

Mon Jan 18, 3:04pm

Mon Jan 18, 2:04pm

Mon Jan 18, 1:04pm

Mon Jan 18, 12:04pm

Mon Jan 18, 10:04am

Mon Jan 18, 9:04am

Mon Jan 18, 8:04am

Mon Jan 18, 7:04am

Mon Jan 18, 6:04am

Mon Jan 18, 5:04am

Mon Jan 18, 4:04am

Mon Jan 18, 3:04am

Mon Jan 18, 2:04am

Mon Jan 18, 1:04am

Mon Jan 18, 12:04am

Sun Jan 17, 11:04pm

Sun Jan 17, 10:04pm

Sun Jan 17, 9:04pm

Sun Jan 17, 8:04pm

Sun Jan 17, 7:04pm

Sun Jan 17, 6:04pm

Sun Jan 17, 5:04pm

Sun Jan 17, 4:05pm

Sun Jan 17, 3:04pm

Sun Jan 17, 2:04pm

Sun Jan 17, 1:04pm

Sun Jan 17, 12:04pm

Sun Jan 17, 11:04am

Sun Jan 17, 10:04am

Sun Jan 17, 9:04am

Sun Jan 17, 8:04am

Sun Jan 17, 7:04am

Sun Jan 17, 6:04am

Sun Jan 17, 5:04am

Sun Jan 17, 4:04am

Sun Jan 17, 3:04am

Sun Jan 17, 2:04am

Sun Jan 17, 1:04am

Sun Jan 17, 12:04am

Sat Jan 16, 11:05pm

Sat Jan 16, 10:04pm

Sat Jan 16, 9:04pm

Sat Jan 16, 8:05pm

Sat Jan 16, 7:04pm

Sat Jan 16, 6:04pm

Sat Jan 16, 5:05pm

Sat Jan 16, 4:05pm

Sat Jan 16, 3:05pm

Sat Jan 16, 2:04pm

Sat Jan 16, 1:04pm

Sat Jan 16, 12:04pm

Sat Jan 16, 11:04am

Sat Jan 16, 10:05am

Sat Jan 16, 9:04am

Sat Jan 16, 8:04am

Sat Jan 16, 7:04am

Sat Jan 16, 6:04am

Sat Jan 16, 5:04am

Sat Jan 16, 4:04am

Sat Jan 16, 3:05am

Sat Jan 16, 2:04am

Sat Jan 16, 1:04am

Sat Jan 16, 12:05am

Fri Jan 15, 11:05pm

Fri Jan 15, 10:04pm

Fri Jan 15, 9:04pm

Fri Jan 15, 8:04pm

Fri Jan 15, 7:05pm

Fri Jan 15, 6:05pm

Fri Jan 15, 5:05pm

Fri Jan 15, 4:05pm

Fri Jan 15, 3:04pm

Fri Jan 15, 2:05pm

Fri Jan 15, 1:04pm

Fri Jan 15, 12:05pm

Fri Jan 15, 11:04am

Fri Jan 15, 10:04am

Fri Jan 15, 9:05am

Fri Jan 15, 8:04am

Fri Jan 15, 7:04am

Fri Jan 15, 6:04am

Fri Jan 15, 5:05am

Fri Jan 15, 4:04am

Fri Jan 15, 3:04am

Fri Jan 15, 2:04am

Fri Jan 15, 1:04am

Fri Jan 15, 12:05am

Thu Jan 14, 11:04pm

Thu Jan 14, 10:04pm

Thu Jan 14, 9:04pm

Thu Jan 14, 8:05pm

Thu Jan 14, 7:04pm

Thu Jan 14, 6:04pm

Thu Jan 14, 5:04pm

Thu Jan 14, 4:05pm

Thu Jan 14, 3:04pm

Thu Jan 14, 2:04pm

Thu Jan 14, 1:04pm

Thu Jan 14, 12:05pm

Thu Jan 14, 11:05am

Thu Jan 14, 10:04am

Thu Jan 14, 9:04am

Thu Jan 14, 8:04am

Thu Jan 14, 7:04am

Thu Jan 14, 6:04am

Thu Jan 14, 5:04am

Thu Jan 14, 4:04am

Thu Jan 14, 3:04am

Thu Jan 14, 2:04am

Thu Jan 14, 1:04am

Thu Jan 14, 12:04am

Wed Jan 13, 11:04pm

Wed Jan 13, 10:04pm

Wed Jan 13, 9:04pm

Wed Jan 13, 8:05pm

Wed Jan 13, 7:04pm

Wed Jan 13, 6:04pm

Wed Jan 13, 5:04pm

Wed Jan 13, 4:04pm

Wed Jan 13, 3:05pm

Wed Jan 13, 2:04pm

Wed Jan 13, 1:04pm

Wed Jan 13, 12:04pm

Wed Jan 13, 11:04am

Wed Jan 13, 10:04am

Wed Jan 13, 9:05am

Wed Jan 13, 8:04am

Wed Jan 13, 7:04am

Wed Jan 13, 6:04am

Wed Jan 13, 5:04am

Wed Jan 13, 4:04am

Wed Jan 13, 3:04am

Wed Jan 13, 2:04am

Wed Jan 13, 1:04am

Wed Jan 13, 12:05am

Tue Jan 12, 11:04pm

Tue Jan 12, 10:04pm

Tue Jan 12, 9:04pm

Tue Jan 12, 8:05pm

Tue Jan 12, 7:04pm

Meta data:

ID: d7931df0-6410-4df1-bf59-b8a98461120c
Link: https://api.weather.gov/products/d7931df0-6410-4df1-bf59-b8a98461120c